Skip Page Navigation
NASA JPL Caltech
NASA Logo - Jet Propulsion Laboratory + View the NASA Portal
+ Center for Near-Earth Object Studies
JPL Home Earth Solar System Stars & Galaxies Technology
JPL Solar System Dynamics
BODIES ORBITS EPHEMERIDES TOOLS PHYSICAL DATA DISCOVERY FAQ SITE MAP
JPL Small-Body Database Browser
Search: [ help ]  
7094 Godaisan (1992 RJ)
Classification: Main-belt Asteroid          SPK-ID: 2007094
Ephemeris | Orbit Diagram | Orbital Elements | Mission Design | Physical Parameters | Discovery Circumstances ]

[ hide orbit diagram ]

For accurate long-term ephemerides, please instead use our Horizons system.This orbit viewer was implemented using two-body methods, and hence should not be used for determining accurate long-term trajectories (over several years or decades) or planetary encounter circumstances.


Orbital Elements at Epoch 2459200.5 (2020-Dec-17.0) TDB
Reference: JPL 42 (heliocentric ecliptic J2000)
 Element Value Uncertainty (1-sigma)   Units 
e .1626967075217492 1.9891e-08  
a 2.781616513564868 9.1678e-09 au
q 2.329056665219737 5.5821e-08 au
i 9.516906624911757 3.0874e-07 deg
node 167.1787473745615 2.4611e-06 deg
peri 223.8911835409554 5.6981e-06 deg
M 354.3703254216801 4.4749e-06 deg
tp 2459226.998732517496
(2021-Jan-12.49873252)
2.1085e-05 TDB
period 1694.51068149405
4.64
8.3773e-06
2.294e-08
d
yr
n .2124507115426314 1.0503e-09 deg/d
Q 3.234176361909999 1.0659e-08 au
  Orbit Determination Parameters
   # obs. used (total)      2696  
   data-arc span      11329 days (31.02 yr)  
   first obs. used      1990-03-01  
   last obs. used      2021-03-07  
   planetary ephem.      DE441  
   SB-pert. ephem.      SB441-N16  
   condition code      0  
   norm. resid. RMS      .4597  
   source      ORB  
   producer      Otto Matic  
   solution date      2021-Apr-12 19:24:21  

Additional Information
 Earth MOID = 1.34275 au 
 Jupiter MOID = 2.25057 au 
 T_jup = 3.294 
[ show covariance matrix ]

Ephemeris | Orbit Diagram | Orbital Elements | Mission Design | Physical Parameters | Discovery Circumstances ]

Physical Parameter Table
Parameter Symbol Value Units Sigma Reference Notes
absolute magnitude H 12.80   n/a E2021B10  

7094 Godaisan           Discovered 1992 Sept. 4 by T. Seki at Geisei.
Named for a small mountain on the eastern side of Kochi City.
NOTE: some special characters may not display properly (any characters within {} are an attempt to place the proper accent above a character)
Reference: 19980610/MPCPages.arcLast Updated: 2009-11-17

Alternate Designations
 1992 RJ = 1990 EA6 
Ephemeris | Orbit Diagram | Orbital Elements | Mission Design | Physical Parameters | Discovery Circumstances ]
ABOUT SSD CREDITS/AWARDS PRIVACY/COPYRIGHT GLOSSARY LINKS
FirstGov 2021-Jun-16 23:53 UT
(server date/time)  
NASA Home Page
Site Manager:   Ryan S. Park
Webmaster  Alan B. Chamberlin